CW9203 Weather Reports


Display with metric or nautical units.
time (UTC)temp
F
wind
direction
speed
MPH
gust
MPH
rain 1hr
in
rain 24hr
in
rain mn
in
humidity
%
barometer
mb
20260509083304 57 270 4.0 8.0 0.01 0.46 0.32 4 1006.0
20260509081306 57 275 3.0 5.0 0.05 0.46 0.32 4 1006.0
20260509074805 57 258 4.0 8.0 0.10 0.49 0.31 4 1005.9
20260509074305 58 253 4.0 12.0 0.10 0.49 0.31 4 1005.8
20260509073304 58 274 5.0 7.0 0.10 0.50 0.31 4 1005.9
20260509072804 59 260 6.0 12.0 0.09 0.50 0.31 4 1005.9
20260509070305 60 285 3.0 10.0 0.05 0.43 0.24 4 1005.4
20260509065306 61 261 3.0 6.0 0.02 0.41 0.22 4 1005.4
20260509064805 61 272 3.0 5.0 0.02 0.40 0.21 4 1005.4
20260509064305 61 282 2.0 5.0 0.02 0.40 0.21 4 1005.3
20260509062804 62 276 1.0 3.0 0.02 0.41 0.21 4 1005.4
20260509061805 62 265 5.0 9.0 0.01 0.39 0.20 4 1005.2
20260509061307 62 244 3.0 8.0 0.01 0.40 0.20 4 1005.0
20260509060805 62 263 3.0 8.0 0.01 0.40 0.20 4 1005.0
20260509060304 62 258 4.0 6.0 0.01 0.40 0.20 4 1005.0
20260509055805 62 264 5.0 9.0 0.01 0.40 0.20 4 1005.0
20260509055306 62 275 3.0 6.0 0.01 0.41 0.20 4 1005.1
20260509054805 62 265 5.0 7.0 0.01 0.41 0.20 4 1005.2
20260509054304 62 245 5.0 12.0 0.01 0.41 0.20 4 1005.1
20260509053304 62 261 3.0 8.0 0.00 0.40 0.19 4 1004.9
20260509052805 62 256 4.0 7.0 0.00 0.40 0.19 4 1004.9
20260509051806 63 265 5.0 8.0 0.00 0.40 0.19 4 1004.8
20260509051306 63 267 3.0 6.0 0.00 0.40 0.19 4 1004.9
20260509050305 63 280 5.0 8.0 0.00 0.40 0.19 4 1004.9
20260509045807 63 275 3.0 8.0 0.00 0.40 0.19 4 1004.9
20260509044805 63 275 3.0 7.0 0.00 0.40 0.19 4 1004.9
20260509043807 63 260 5.0 6.0 0.00 0.40 0.19 4 1004.9
20260509043305 63 257 5.0 9.0 0.00 0.40 0.19 4 1004.9
20260509041805 63 272 3.0 5.0 0.00 0.40 0.19 4 1004.9
20260509040304 63 265 3.0 6.0 0.00 0.40 0.19 4 1005.1
20260509035804 63 258 3.0 10.0 0.00 0.40 0.19 4 1005.1
20260509034804 65 251 5.0 14.0 0.00 0.40 0.19 4 1005.3
20260509034304 65 267 5.0 9.0 0.00 0.40 0.19 4 1005.3
20260509033304 65 257 3.0 13.0 0.00 0.40 0.19 4 1005.6
20260509032804 65 255 3.0 10.0 0.00 0.40 0.19 4 1005.8
20260509032306 66 244 6.0 12.0 0.00 0.40 0.19 4 1005.8
20260509031303 66 241 2.0 9.0 0.00 0.40 0.19 4 1005.9
20260509030304 66 258 6.0 12.0 0.00 0.40 0.19 4 1005.9
20260509025804 66 253 6.0 12.0 0.00 0.40 0.19 4 1005.8
20260509022307 67 247 5.0 10.0 0.00 0.40 0.19 45 1005.4
20260509021305 68 250 7.0 15.0 0.00 0.40 0.19 42 1005.6
20260509020807 68 266 5.0 13.0 0.00 0.40 0.19 33 1005.6
20260509020307 68 263 7.0 12.0 0.00 0.40 0.19 24 1005.6
20260509015307 67 242 7.0 15.0 0.00 0.40 0.19 4 1005.6
20260509013804 67 283 5.0 8.0 0.00 0.40 0.19 4 1005.6
20260509013305 67 254 7.0 14.0 0.01 0.40 0.19 4 1005.6
20260509012806 67 252 7.0 12.0 0.01 0.40 0.19 4 1005.7
20260509011304 66 267 4.0 9.0 0.01 0.40 0.19 4 1005.9
20260509010805 66 254 5.0 12.0 0.01 0.40 0.19 4 1006.0
20260509004307 62 262 6.0 12.0 0.02 0.40 0.19 4 1006.7
20260509003805 63 258 6.0 12.0 0.02 0.40 0.19 4 1006.8
20260509000305 65 277 6.0 12.0 0.01 0.39 0.18 4 1007.3
20260508235804 65 266 4.0 9.0 0.00 0.39 0.17 4 1007.4
20260508234307 64 256 3.0 8.0 0.00 0.39 0.17 4 1007.7
20260508233806 64 278 2.0 6.0 0.00 0.39 0.17 4 1007.8
20260508233306 64 286 2.0 6.0 0.00 0.39 0.17 4 1007.9
20260508232805 64 276 5.0 10.0 0.00 0.39 0.17 4 1007.9
20260508231804 63 278 3.0 7.0 0.00 0.39 0.17 4 1008.0
20260508231305 63 295 2.0 5.0 0.00 0.39 0.17 4 1008.0
20260508230806 62 274 2.0 7.0 0.00 0.39 0.17 4 1008.1
20260508222804 61 248 5.0 9.0 0.04 0.39 0.17 4 1008.5
20260508222306 61 247 4.0 8.0 0.04 0.39 0.17 4 1008.5
20260508221805 61 272 3.0 6.0 0.04 0.39 0.17 4 1008.5
20260508221307 60 273 5.0 8.0 0.04 0.39 0.17 4 1008.4
20260508220305 62 246 7.0 15.0 0.03 0.38 0.17 4 1008.6
20260508215307 62 273 2.0 6.0 0.00 0.35 0.13 4 1008.4
20260508214807 62 292 1.0 2.0 0.00 0.35 0.13 4 1008.4
20260508214306 62 295 1.0 3.0 0.00 0.35 0.13 4 1008.4
20260508211306 61 277 4.0 7.0 0.00 0.35 0.13 4 1008.5
20260508204306 60 292 0.0 0.0 0.00 0.35 0.13 4 1008.4
20260508202807 60 266 0.0 0.0 0.00 0.35 0.13 4 1008.4
20260508202306 60 283 0.0 0.0 0.00 0.35 0.13 4 1008.4
20260508200305 58 283 0.0 0.0 0.00 0.35 0.13 4 1008.3
20260508195806 58 283 0.0 0.0 0.00 0.35 0.13 4 1008.3
20260508195307 58 283 0.0 0.0 0.01 0.35 0.13 4 1008.2
20260508193807 57 283 0.0 0.0 0.01 0.35 0.13 4 1008.1
20260508191305 57 284 0.0 1.0 0.01 0.35 0.13 4 1008.1
20260508190807 57 285 0.0 1.0 0.02 0.35 0.13 4 1008.0
20260508184306 58 286 0.0 1.0 0.02 0.34 0.13 4 1007.8
20260508183304 58 286 0.0 1.0 0.02 0.34 0.13 4 1007.8
20260508182307 59 279 3.0 8.0 0.02 0.34 0.13 4 1007.8
20260508181805 59 282 1.0 7.0 0.02 0.34 0.13 4 1007.7
20260508181305 59 256 5.0 12.0 0.02 0.34 0.13 4 1007.8
20260508180807 58 266 2.0 3.0 0.01 0.33 0.12 4 1007.8
20260508180305 58 269 0.0 0.0 0.00 0.32 0.11 4 1007.7
20260508174805 58 289 0.0 0.0 0.00 0.32 0.11 4 1007.7
20260508174307 58 290 0.0 0.0 0.00 0.32 0.11 4 1007.7
20260508173807 58 296 0.0 1.0 0.00 0.32 0.11 4 1007.7
20260508173307 58 282 0.0 1.0 0.00 0.32 0.11 4 1007.7
20260508172806 58 277 0.0 1.0 0.00 0.32 0.11 4 1007.7
20260508171804 58 268 0.0 1.0 0.00 0.32 0.11 4 1007.7
20260508171307 58 268 1.0 3.0 0.00 0.32 0.11 4 1007.7
20260508163807 58 273 1.0 1.0 0.00 0.32 0.11 4 1007.7
20260508163307 58 272 1.0 1.0 0.00 0.32 0.11 4 1007.7
20260508162806 58 272 1.0 1.0 0.00 0.32 0.11 4 1007.7
20260508161305 57 273 1.0 2.0 0.00 0.32 0.11 4 1007.8
20260508160807 57 271 1.0 3.0 0.00 0.32 0.11 4 1007.8
20260508155306 57 266 0.0 1.0 0.00 0.32 0.11 4 1007.8
20260508154806 57 266 0.0 1.0 0.00 0.32 0.11 4 1007.8
20260508153805 57 266 0.0 1.0 0.00 0.32 0.11 4 1007.9
20260508153305 57 266 0.0 0.0 0.00 0.32 0.11 4 1008.0
20260508151805 58 266 0.0 2.0 0.00 0.32 0.11 4 1008.1
20260508145807 58 269 0.0 2.0 0.00 0.32 0.11 4 1008.3
20260508143805 58 264 1.0 3.0 0.00 0.32 0.11 4 1008.3
20260508143307 58 270 1.0 2.0 0.00 0.32 0.11 4 1008.3
20260508142807 58 270 1.0 2.0 0.00 0.32 0.11 4 1008.3
20260508142307 58 269 1.0 2.0 0.00 0.32 0.11 4 1008.4
20260508141306 58 285 0.0 2.0 0.00 0.32 0.11 4 1008.4
20260508140305 58 274 1.0 2.0 0.00 0.32 0.11 4 1008.6
20260508134805 58 285 0.0 2.0 0.02 0.32 0.11 4 1008.7
20260508132307 58 273 1.0 3.0 0.09 0.32 0.11 4 1008.6
20260508131804 58 272 1.0 3.0 0.10 0.32 0.11 4 1008.5
20260508131305 58 274 2.0 3.0 0.10 0.32 0.11 4 1008.6
20260508130305 58 277 1.0 3.0 0.11 0.32 0.11 4 1008.5
20260508125804 58 275 2.0 6.0 0.11 0.32 0.11 4 1008.5
20260508124806 58 264 1.0 3.0 0.09 0.30 0.09 4 1008.6
20260508124306 58 259 2.0 3.0 0.09 0.30 0.09 4 1008.6
20260508123805 59 278 2.0 3.0 0.09 0.30 0.09 4 1008.8
20260508123305 59 267 2.0 3.0 0.09 0.30 0.09 4 1008.9
20260508122307 59 262 5.0 10.0 0.06 0.24 0.02 4 1009.3
20260508120824 59 262 2.0 8.0 0.09 0.21 0.00 4 1009.2
20260508120306 60 271 3.0 15.0 0.09 0.21 0.00 4 1009.2
20260508115306 60 280 4.0 10.0 0.09 0.21 0.21 4 1009.4
20260508114305 60 274 5.0 13.0 0.09 0.21 0.21 4 1009.1
20260508113305 61 260 9.0 17.0 0.09 0.21 0.21 4 1009.1
20260508112805 62 250 7.0 16.0 0.09 0.20 0.20 4 1008.9
20260508110805 64 320 2.0 7.0 0.00 0.12 0.12 4 1008.3
20260508110307 64 328 2.0 12.0 0.00 0.12 0.12 4 1008.4
20260508105805 64 331 2.0 7.0 0.00 0.12 0.12 4 1008.5
20260508104305 64 337 2.0 9.0 0.00 0.12 0.12 4 1008.7
20260508100306 64 315 1.0 3.0 0.05 0.12 0.12 4 1009.2
20260508095804 64 336 1.0 8.0 0.05 0.12 0.12 4 1009.3
20260508095306 64 329 2.0 6.0 0.05 0.12 0.12 4 1009.5
20260508094805 64 324 1.0 5.0 0.05 0.12 0.12 4 1009.6
20260508093305 64 333 2.0 6.0 0.04 0.11 0.11 4 1009.6
20260508091807 64 331 1.0 6.0 0.02 0.09 0.09 4 1010.0
20260508091304 63 331 1.0 3.0 0.02 0.09 0.09 4 1010.0
20260508090805 63 344 1.0 6.0 0.02 0.09 0.09 4 1010.1
20260508090307 63 341 2.0 5.0 0.01 0.07 0.07 4 1010.0
20260508085806 63 324 1.0 3.0 0.01 0.07 0.07 4 1010.2